utc_time,unix_time,temp,cond,salinity,tds,chla_rfu,chla_ugl,bga_rfu,bga_ugl,odo,sat,nitrate_um,nitrogen_mg,stage,area,discharge,total_discharge
2018-12-01 00:00:00+00:00,1543622401,15.528,34353.13,26.96,27.26,,,,,8.97,106.04,97.827,1.37026,1.131,1.8096,0.0239,0.0478
2018-12-01 00:20:00+00:00,1543623601,15.391,34008.35,26.75,27.07,,,,,8.7,102.48,102.483,1.43545,1.136,1.8176,0.0481,0.0962
2018-12-01 00:40:00+00:00,1543624801,15.233,33652.13,26.54,26.89,,,,,8.27,96.92,105.499,1.47769,1.139,1.8224,0.05765,0.1153
2018-12-01 01:00:00+00:00,1543626001,15.089,33587.49,26.59,26.93,,,,,8.3,97.02,109.424,1.53266,1.143,1.8288,0.0173,0.0346
2018-12-01 01:20:00+00:00,1543627202,14.954,33496.79,26.6,26.94,,,,,8.07,94.1,110.118,1.5424,1.147,1.8352,0.0676,0.1352
2018-12-01 01:40:00+00:00,1543628401,14.82,33420.37,26.62,26.97,,,,,8.1,94.28,104.244,1.46011,1.147,1.8352,0.0338,0.0676
2018-12-01 02:00:00+00:00,1543629601,14.545,33019.49,26.45,26.82,,,,,7.88,91.04,105.95,1.48404,1.149,1.8384,0.0469,0.0938
2018-12-01 02:20:00+00:00,1543630802,14.37,32576.13,26.18,26.57,,,,,7.43,85.38,108.166,1.51505,1.152,1.8432,0.0679,0.1358
2018-12-01 02:40:00+00:00,1543632001,14.313,32479.32,26.13,26.53,,,,,7.37,84.61,112.439,1.57489,1.1515,1.8424,0.0714,0.1428
2018-12-01 03:00:00+00:00,1543633202,14.223,32367.32,26.09,26.49,,,,,6.92,79.31,117.282,1.64272,1.152,1.8432,0.0697,0.1394
2018-12-01 03:20:00+00:00,1543634402,14.106,32281.53,26.09,26.5,,,,,7.06,80.64,120.044,1.6814,1.153,1.8448,-0.0105,-0.021
2018-12-01 03:40:00+00:00,1543635601,13.993,32165.39,26.07,26.47,,,,,6.89,78.53,119.763,1.67749,1.1565,1.8504,0.01835,0.0367
2018-12-01 04:00:00+00:00,1543636802,13.996,32256.94,26.15,26.55,,,,,6.71,76.52,116.938,1.63792,1.157,1.8512,0.0665,0.133
2018-12-01 04:20:00+00:00,1543638001,13.78,32074.97,26.13,26.54,,,,,6.48,73.61,119.086,1.66799,1.157,1.8512,0.0262,0.0524
2018-12-01 04:40:00+00:00,1543639201,13.823,32064.84,26.09,26.5,,,,,6.07,68.96,121.347,1.69966,1.156,1.8496,0.02535,0.0507
2018-12-01 05:00:00+00:00,1543640402,13.738,31989.24,26.08,26.49,,,,,4.25,48.21,127.463,1.78534,1.158,1.8528,-0.0333,-0.0666
2018-12-01 05:20:00+00:00,1543641601,13.579,31787.07,26.01,26.43,,,,,3.81,43.02,128.063,1.79373,1.158,1.8528,-0.0245,-0.049
2018-12-01 05:40:00+00:00,1543642801,13.599,31766.93,25.98,26.4,,,,,7.05,79.66,110.144,1.54274,1.16,1.856,-0.01845,-0.0369
2018-12-01 06:00:00+00:00,1543644002,13.399,31884.74,26.22,26.62,,,,,6.6,74.32,103.298,1.44684,1.16,1.856,-0.0386,-0.0772
2018-12-01 06:20:00+00:00,1543645201,13.25,32671.34,27.04,27.38,,,,,6.1,68.86,85.226,1.19375,1.147,1.8352,-0.2878,-0.5756
2018-12-01 06:40:00+00:00,1543646401,12.679,32118.52,26.94,27.3,,,,,5.09,56.72,67.706,0.94836,1.118,1.7888,-0.62325,-1.2465
2018-12-01 07:00:00+00:00,1543647602,12.789,33348.71,28,28.27,,,,,6.28,70.6,63.778,0.89333,1.101,1.7616,-0.7177,-1.4354
2018-12-01 07:20:00+00:00,1543648801,12.866,34000.39,28.55,28.77,,,,,5.98,67.64,58.6,0.8208,1.089,1.7424,-0.7292,-1.4584
2018-12-01 07:40:00+00:00,1543650001,12.855,34196.02,28.74,28.94,,,,,6.06,68.55,52.238,0.7317,1.0775,1.724,-0.7455,-1.491
2018-12-01 08:00:00+00:00,1543651201,12.745,34123.98,28.75,28.96,,,,,5.77,65.16,44.227,0.61948,1.063,1.7008,-0.7416,-1.4832
2018-12-01 08:20:00+00:00,1543652402,12.506,33940.27,28.76,28.98,,,,,5.62,63.13,38.628,0.54104,1.056,1.6896,-0.7317,-1.4634
2018-12-01 08:40:00+00:00,1543653601,12.314,33965.07,28.93,29.14,,,,,5.26,58.92,37.07,0.51923,1.0465,1.6744,-0.706,-1.412
2018-12-01 09:00:00+00:00,1543654802,12.215,33964.54,29.01,29.21,,,,,4.61,51.58,28.581,0.40031,1.045,1.672,-0.6026,-1.2052
2018-12-01 09:20:00+00:00,1543656001,12.162,33970,29.06,29.25,,,,,3.91,43.67,31.31,0.43856,1.046,1.6736,-0.5197,-1.0394
2018-12-01 09:40:00+00:00,1543657202,12.124,33974.37,29.09,29.29,,,,,3.15,35.15,46.296,0.64846,1.0625,1.7,-0.1779,-0.3558
2018-12-01 10:00:00+00:00,1543658401,10.302,31511.74,28.12,28.48,,,,,7.05,75.25,25.736,0.36046,1.064,1.7024,0.0609,0.1218
2018-12-01 10:20:00+00:00,1543659601,11.544,33463.88,29.06,29.28,,,,,5.06,55.83,32.519,0.45549,1.065,1.704,0.0514,0.1028
2018-12-01 10:40:00+00:00,1543660802,11.589,33579.05,29.13,29.34,,,,,3.59,39.63,39.673,0.55568,1.067,1.7072,0.0088,0.0176
2018-12-01 11:00:00+00:00,1543662002,11.273,33447.83,29.25,29.47,,,,,2.73,29.96,39.293,0.55037,1.071,1.7136,0.0565,0.113
2018-12-01 11:20:00+00:00,1543663201,11.421,33458.71,29.15,29.36,,,,,2.99,32.97,49.982,0.70011,1.071,1.7136,0.0258,0.0516
2018-12-01 11:40:00+00:00,1543664402,11.828,33732.77,29.09,29.3,,,,,4.64,51.47,44.935,0.62936,1.0715,1.7144,0.02985,0.0597
2018-12-01 12:00:00+00:00,1543665602,11.811,33775.57,29.15,29.35,,,,,3.23,35.88,46.642,0.6533,1.073,1.7168,0.0113,0.0226
2018-12-01 12:20:00+00:00,1543666801,11.737,33748.93,29.18,29.38,,,,,2.29,25.42,47.773,0.66917,1.074,1.7184,0.034,0.068
2018-12-01 12:40:00+00:00,1543668001,11.673,33701.71,29.18,29.39,,,,,2.06,22.75,50.869,0.71251,1.074,1.7184,0.06235,0.1247
2018-12-01 13:00:00+00:00,1543669201,11.599,33646.16,29.19,29.39,,,,,3.19,35.24,45.796,0.64144,1.073,1.7168,0.0728,0.1456
2018-12-01 13:20:00+00:00,1543670401,11.493,33561.59,29.19,29.4,,,,,3.55,39.13,46.323,0.64883,1.075,1.72,0.0859,0.1718
2018-12-01 13:40:00+00:00,1543671601,11.502,33559.79,29.18,29.39,,,,,4.04,44.5,42.175,0.59072,1.076,1.7216,0.07625,0.1525
2018-12-01 14:00:00+00:00,1543672801,11.272,33453.13,29.26,29.47,,,,,3.96,43.43,43.422,0.60822,1.082,1.7312,0.075,0.15
2018-12-01 14:20:00+00:00,1543674002,11.241,33340.4,29.18,29.4,,,,,2.01,22.1,44.035,0.61678,1.083,1.7328,0.0817,0.1634
2018-12-01 14:40:00+00:00,1543675201,11.286,33322.12,29.12,29.35,,,,,2.5,27.38,46.791,0.65539,1.0825,1.732,0.102,0.204
2018-12-01 15:00:00+00:00,1543676401,11.275,32879.3,28.7,28.96,,,,,4.51,49.32,52.107,0.72985,1.09,1.744,0.0986,0.1972
2018-12-01 15:20:00+00:00,1543677601,11.679,33112.38,28.61,28.87,,,,,3.66,40.35,60.281,0.8443,1.091,1.7456,0.0773,0.1546
2018-12-01 15:40:00+00:00,1543678802,8.625,20841.62,18.71,19.71,,,,,7.53,72.79,176.295,2.4693,0.997,1.5952,0.1114,0.2228
2018-12-01 16:00:00+00:00,1543680001,11.59,31846.49,27.47,27.83,,,,,4.51,49.3,39.904,0.55893,0.956,1.5296,0.0774,0.1548
2018-12-01 16:20:00+00:00,1543681202,11.668,31922.27,27.49,27.84,,,,,5.65,61.88,176.081,2.46632,0.98,1.568,0.1118,0.2236
2018-12-01 16:40:00+00:00,1543682401,11.683,31916.25,27.47,27.82,,,,,5.5,60.24,158.281,2.21701,1.11,1.776,0.08375,0.1675
2018-12-01 17:00:00+00:00,1543683601,12.003,32165.24,27.47,27.81,,,,,4.74,52.29,64.855,0.90841,0.935,1.496,0.1093,0.2186
2018-12-01 17:20:00+00:00,1543684802,11.426,29657.96,25.51,26.02,,,,,6.45,69.4,80.93,1.13355,0.949,1.5184,0.111,0.222
2018-12-01 17:40:00+00:00,1543686001,11.576,29861.71,25.6,26.1,,,,,6.37,68.77,77.256,1.0821,1.1115,1.7784,0.0721,0.1442
2018-12-01 18:00:00+00:00,1543687202,11.838,30071,25.61,26.11,,,,,7.09,77.04,75.301,1.05471,1.104,1.7664,0.1999,0.3998
2018-12-01 18:20:00+00:00,1543688401,12.071,31376.36,26.68,27.08,,,,,7.01,77.07,73.497,1.02943,1.09,1.744,0.2137,0.4274
2018-12-01 18:40:00+00:00,1543689601,12.497,31668.57,26.65,27.04,,,,,7.05,78.21,70.228,0.98366,1.092,1.7472,-0.0087,-0.0174
2018-12-01 19:00:00+00:00,1543690801,12.625,32190.87,27.04,27.4,,,,,7.5,83.59,69.844,0.9783,1.087,1.7392,0.1918,0.3836
2018-12-01 19:20:00+00:00,1543692002,12.81,31972.34,26.71,27.09,,,,,7.01,78.27,71.569,1.00246,1.087,1.7392,-0.0115,-0.023
2018-12-01 19:40:00+00:00,1543693201,12.855,32390.03,27.06,27.41,,,,,7.4,82.9,73.01,1.02263,1.091,1.7456,0.0708,0.1416
2018-12-01 20:00:00+00:00,1543694401,13.106,33023.69,27.47,27.78,,,,,8.41,94.93,69.901,0.9791,1.091,1.7456,0.0444,0.0888
2018-12-01 20:20:00+00:00,1543695602,13.335,33152.49,27.42,27.73,,,,,8,90.7,63.597,0.8908,1.096,1.7536,-0.0397,-0.0794
2018-12-01 20:40:00+00:00,1543696801,13.604,32362.78,26.51,26.89,,,,,7.29,82.71,70.396,0.98603,1.092,1.7472,0.17675,0.3535
2018-12-01 21:00:00+00:00,1543698002,13.41,32599.54,26.86,27.21,,,,,7.69,87,65.441,0.9166,1.092,1.7472,-0.056,-0.112
2018-12-01 21:20:00+00:00,1543699202,13.78,32598.37,26.6,26.97,,,,,7.77,88.47,67.085,0.93964,1.1,1.76,-0.078,-0.156
2018-12-01 21:40:00+00:00,1543700401,13.879,32948.77,26.85,27.19,,,,,7.76,88.69,70.879,0.9928,1.1035,1.7656,0.0458,0.0916
2018-12-01 22:00:00+00:00,1543701602,14.331,33733.04,27.24,27.54,,,,,8.42,97.37,73.22,1.02556,1.099,1.7584,-0.0066,-0.0132
2018-12-01 22:20:00+00:00,1543702801,13.981,33806.06,27.55,27.83,,,,,10.14,116.62,77.253,1.08207,1.099,1.7584,0.058,0.116
2018-12-01 22:40:00+00:00,1543704001,14.727,33944.45,27.15,27.45,,,,,7.75,90.23,79.172,1.10891,1.1005,1.7608,0.0365,0.073
2018-12-01 23:00:00+00:00,1543705202,14.669,33983.79,27.22,27.52,,,,,8.65,100.73,73.737,1.03278,1.101,1.7616,0.0698,0.1396
2018-12-01 23:20:00+00:00,1543706401,14.65,33795.57,27.07,27.38,,,,,8.07,93.81,77.949,1.09182,1.103,1.7648,-0.0832,-0.1664
2018-12-01 23:40:00+00:00,1543707601,14.449,34192.11,27.56,27.83,,,,,8.87,103,79.09,1.10777,1.1085,1.7736,0.0284,0.0568
2018-12-02 00:00:00+00:00,1543708802,14.383,34139.84,27.56,27.84,,,,,9.58,111.12,,,1.109,1.7744,0.067,0.134
2018-12-02 00:20:00+00:00,1543710002,14.286,33871.71,27.39,27.68,,,,,9.04,104.48,,,1.11,1.776,0.0687,0.1374
2018-12-02 00:40:00+00:00,1543711201,14.211,33562.52,27.17,27.48,,,,,8.98,103.53,,,0.0560000000000001,0.3896,0.0319,0.0638
2018-12-02 01:00:00+00:00,1543712401,14.136,33286.91,26.97,27.3,,,,,8.82,101.42,,,-1,-1,0,0
2018-12-02 01:20:00+00:00,1543713601,13.971,33095.45,26.92,27.25,,,,,8.52,97.63,110.795,1.55189,1.112,1.7792,0.0285,0.057
2018-12-02 01:40:00+00:00,1543714802,13.773,32826.03,26.81,27.16,,,,,7.96,90.73,110.378,1.54604,1.114,1.7824,0.07315,0.1463
2018-12-02 02:00:00+00:00,1543716001,13.567,32724.46,26.86,27.21,,,,,8.12,92.24,114.859,1.6088,1.117,1.7872,0.0219,0.0438
2018-12-02 02:20:00+00:00,1543717202,13.317,32442.43,26.78,27.14,,,,,7.38,83.36,104.42,1.46257,1.118,1.7888,0.0523,0.1046
2018-12-02 02:40:00+00:00,1543718401,13.275,32471.2,26.84,27.2,,,,,7.32,82.63,110.598,1.54911,1.121,1.7936,0.0296,0.0592
2018-12-02 03:00:00+00:00,1543719601,13.063,32393.01,26.92,27.27,,,,,7.56,84.97,109.83,1.53838,-1,-1,0,0
2018-12-02 03:20:00+00:00,1543720802,13.234,32628.14,27.01,27.36,,,,,6.49,73.19,113.215,1.58578,1.124,1.7984,0.0424,0.0848
2018-12-02 03:40:00+00:00,1543722001,12.986,32589,27.15,27.49,,,,,7.12,80.04,114.548,1.60445,-1,-1,0,0
2018-12-02 04:00:00+00:00,1543723201,12.877,32489.76,27.14,27.48,,,,,6.17,69.22,105.299,1.4749,1.12,1.792,0.0321,0.0642
2018-12-02 04:20:00+00:00,1543724402,12.698,32241.67,27.04,27.39,,,,,6.07,67.7,110.933,1.55377,1.122,1.7952,0.0474,0.0948
2018-12-02 04:40:00+00:00,1543725601,12.786,32365.59,27.09,27.44,,,,,6.09,68.1,115.496,1.61772,1.1235,1.7976,0.011,0.022
2018-12-02 05:00:00+00:00,1543726801,12.582,32152.41,27.04,27.4,,,,,4.75,52.95,110.334,1.54539,1.127,1.8032,0.0579,0.1158
2018-12-02 05:20:00+00:00,1543728002,12.647,32249.23,27.08,27.44,,,,,5.68,63.37,119.316,1.67123,1.127,1.8032,0.0034,0.0068
2018-12-02 05:40:00+00:00,1543729201,12.762,32409.93,27.15,27.49,,,,,6.02,67.38,125.083,1.75198,1.127,1.8032,0.0187,0.0374
2018-12-02 06:00:00+00:00,1543730401,12.726,32409.8,27.17,27.52,,,,,5.79,64.67,124.866,1.74897,1.129,1.8064,0.0307,0.0614
2018-12-02 06:20:00+00:00,1543731602,12.569,32319.34,27.2,27.55,,,,,4.74,52.8,119.545,1.67441,1.128,1.8048,0.0426,0.0852
2018-12-02 06:40:00+00:00,1543732801,12.3,32005.82,27.1,27.47,,,,,4.18,46.3,115.603,1.6192,1.1295,1.8072,-0.00595,-0.0119
2018-12-02 07:00:00+00:00,1543734001,12.503,32197.26,27.14,27.49,,,,,5.56,61.82,117.1,1.64018,1.129,1.8064,0.0171,0.0342
2018-12-02 07:20:00+00:00,1543735201,12.158,31826.85,27.04,27.41,,,,,6.19,68.25,82.671,1.15796,1.129,1.8064,0,0
2018-12-02 07:40:00+00:00,1543736402,11.927,31476.31,26.87,27.27,,,,,6.61,72.49,83.087,1.16378,1.1285,1.8056,-0.0688,-0.1376
2018-12-02 08:00:00+00:00,1543737601,11.91,31480.94,26.89,27.28,,,,,6.57,72,84.073,1.17756,1.116,1.7856,-0.3589,-0.7178
2018-12-02 08:20:00+00:00,1543738802,11.707,31267.69,26.84,27.24,,,,,6.61,72.15,58.573,0.82042,1.099,1.7584,-0.5289,-1.0578
2018-12-02 08:40:00+00:00,1543740001,11.59,31166.15,26.82,27.23,,,,,6.82,74.26,57.493,0.80531,1.0865,1.7384,-0.59705,-1.1941
2018-12-02 09:00:00+00:00,1543741201,11.545,31150.44,26.84,27.25,,,,,6.56,71.34,58.748,0.82285,1.081,1.7296,-0.5688,-1.1376
2018-12-02 09:20:00+00:00,1543742402,11.473,31068.99,26.82,27.23,,,,,6.7,72.71,61.228,0.8576,1.076,1.7216,-0.558,-1.116
2018-12-02 09:40:00+00:00,1543743601,11.387,30990.15,26.8,27.22,,,,,6.57,71.25,59.122,0.82813,1.079,1.7264,-0.3408,-0.6816
2018-12-02 10:00:00+00:00,1543744801,11.307,30934.07,26.81,27.23,,,,,5.88,63.67,64.51,0.90357,1.092,1.7472,-0.0741,-0.1482
2018-12-02 10:20:00+00:00,1543746002,11.243,30894.91,26.82,27.24,,,,,6.32,68.32,65.307,0.91472,1.09,1.744,0.0378,0.0756
2018-12-02 10:40:00+00:00,1543747201,11.278,30911.02,26.81,27.23,,,,,4.49,48.6,59.867,0.83853,1.086,1.7376,-0.02375,-0.0475
2018-12-02 11:00:00+00:00,1543748402,11.051,30744.2,26.81,27.24,,,,,4.51,48.57,59.962,0.83985,1.092,1.7472,-0.0247,-0.0494
2018-12-02 11:20:00+00:00,1543749602,10.952,30565.66,26.71,27.15,,,,,3.49,37.43,62.887,0.88083,1.094,1.7504,-0.0149,-0.0298
2018-12-02 11:40:00+00:00,1543750801,10.823,30438.37,26.68,27.13,,,,,3.28,35.05,66.694,0.93415,1.0935,1.7496,0.0231,0.0462
2018-12-02 12:00:00+00:00,1543752002,10.813,30455.06,26.7,27.15,,,,,3.18,34.01,63.686,0.89202,1.093,1.7488,0.0379,0.0758
2018-12-02 12:20:00+00:00,1543753202,10.804,30473.67,26.73,27.18,,,,,3.68,39.32,73.479,1.02919,1.094,1.7504,0.0198,0.0396
2018-12-02 12:40:00+00:00,1543754401,10.821,30506.47,26.75,27.19,,,,,4.33,46.35,71.441,1.00068,1.0945,1.7512,0.03305,0.0661
2018-12-02 13:00:00+00:00,1543755602,10.931,30616.44,26.77,27.21,,,,,4.92,52.78,65.795,0.92158,1.097,1.7552,0.0149,0.0298
2018-12-02 13:20:00+00:00,1543756802,10.842,30581.97,26.81,27.25,,,,,5.11,54.77,66.233,0.92771,1.099,1.7584,0.0696,0.1392
2018-12-02 13:40:00+00:00,1543758001,10.777,30528.46,26.8,27.24,,,,,5.08,54.3,64.227,0.89961,1.101,1.7616,0.06065,0.1213
2018-12-02 14:00:00+00:00,1543759202,10.644,30400.96,26.78,27.23,,,,,5.63,60.06,63.633,0.89128,1.103,1.7648,0.0682,0.1364
2018-12-02 14:20:00+00:00,1543760401,10.625,30372.53,26.76,27.21,,,,,5.73,61.07,61.058,0.85526,1.103,1.7648,0.0749,0.1498
2018-12-02 14:40:00+00:00,1543761601,10.555,30338.21,26.78,27.23,,,,,5.72,60.89,61.757,0.86499,1.1045,1.7672,0.0633,0.1266
2018-12-02 15:00:00+00:00,1543762802,10.116,30091.85,26.86,27.33,,,,,6.32,66.7,64.923,0.90937,1.106,1.7696,0.0835,0.167
2018-12-02 15:20:00+00:00,1543764001,9.786,29641.12,26.66,27.16,,,,,6.35,66.41,78.583,1.10068,1.107,1.7712,0.0618,0.1236
2018-12-02 15:40:00+00:00,1543765201,9.702,29323.78,26.41,26.93,,,,,6.32,65.85,87.887,1.23099,1.112,1.7792,0.07975,0.1595
2018-12-02 16:00:00+00:00,1543766402,10.307,29788.7,26.42,26.92,,,,,5.92,62.5,84.948,1.18983,1.114,1.7824,0.1093,0.2186
2018-12-02 16:20:00+00:00,1543767601,10.551,30133.13,26.58,27.05,,,,,5.5,58.44,80.613,1.12911,1.116,1.7856,0.1095,0.219
2018-12-02 16:40:00+00:00,1543768801,10.641,30302.33,26.68,27.14,,,,,4.69,50.02,86.658,1.21379,1.1165,1.7864,0.0767,0.1534
2018-12-02 17:00:00+00:00,1543770002,10.799,30508.33,26.77,27.21,,,,,5.12,54.81,80.427,1.12652,1.116,1.7856,0.0354,0.0708
2018-12-02 17:20:00+00:00,1543771201,10.855,30574.92,26.79,27.23,,,,,4.7,50.39,78.901,1.10515,1.116,1.7856,0.0623,0.1246
2018-12-02 17:40:00+00:00,1543772401,10.883,30630.32,26.82,27.26,,,,,5.14,55.06,85.527,1.19794,1.122,1.7952,0.0559,0.1118
2018-12-02 18:00:00+00:00,1543773602,10.255,30284.94,26.95,27.4,,,,,4.22,44.69,51.242,0.71771,1.125,1.8,0.0442,0.0884
2018-12-02 18:20:00+00:00,1543774801,10.118,29772.75,26.55,27.04,,,,,5.53,58.25,49.032,0.68681,1.126,1.8016,0.0714,0.1428
2018-12-02 18:40:00+00:00,1543776002,9.555,27169.81,24.38,25.05,,,,,8.3,85.07,50.386,0.70576,1.129,1.8064,0.04685,0.0937
2018-12-02 19:00:00+00:00,1543777201,10.006,27667.96,24.56,25.2,,,,,8.81,91.36,61.333,0.85909,1.129,1.8064,0.0171,0.0342
2018-12-02 19:20:00+00:00,1543778401,10.618,27426.78,23.92,24.58,,,,,8.94,93.58,74.963,1.04997,1.13,1.808,0.0478,0.0956
2018-12-02 19:40:00+00:00,1543779602,10.856,27341.18,23.68,24.35,,,,,9.44,99.13,59.031,0.82684,1.1305,1.8088,0.03505,0.0701
2018-12-02 20:00:00+00:00,1543780801,11.465,27066.61,23.04,23.73,,,,,9.96,105.57,60.879,0.85274,1.13,1.808,0.0307,0.0614
2018-12-02 20:20:00+00:00,1543782002,11.909,27573.31,23.24,23.9,,,,,9.88,105.88,56.658,0.7936,1.127,1.8032,0.0153,0.0306
2018-12-02 20:40:00+00:00,1543783201,12.091,27951.34,23.47,24.11,,,,,9.98,107.57,54.09,0.75759,1.1305,1.8088,0.0094,0.0188
2018-12-02 21:00:00+00:00,1543784401,13.263,29299.29,23.97,24.55,,,,,9.67,107.13,62.984,0.88222,1.13,1.808,0.0171,0.0342
2018-12-02 21:20:00+00:00,1543785601,13.342,30925.15,25.39,25.86,,,,,10.15,113.66,61.047,0.85507,1.126,1.8016,-0.0884,-0.1768
2018-12-02 21:40:00+00:00,1543786802,12.753,30674.25,25.55,26.03,,,,,10.4,115.11,54.335,0.76105,1.1075,1.772,-0.3784,-0.7568
2018-12-02 22:00:00+00:00,1543788001,12.772,30589.3,25.46,25.94,,,,,10.64,117.81,52.71,0.73828,1.096,1.7536,-0.4514,-0.9028
2018-12-02 22:20:00+00:00,1543789201,12.639,30372.25,25.35,25.84,,,,,9.93,109.58,57.23,0.80159,1.093,1.7488,-0.4237,-0.8474
2018-12-02 22:40:00+00:00,1543790402,13.402,31238.13,25.63,26.08,,,,,10.76,120.79,59.642,0.83535,1.091,1.7456,-0.3573,-0.7146
2018-12-02 23:00:00+00:00,1543791601,13.248,31209.69,25.71,26.16,,,,,11.62,130.15,59.108,0.8279,1.099,1.7584,-0.0265,-0.053
2018-12-02 23:20:00+00:00,1543792801,13.338,31359.59,25.78,26.23,,,,,11.48,128.81,59.556,0.83417,1.095,1.752,0.0463,0.0926
2018-12-02 23:40:00+00:00,1543794002,13.343,31343.77,25.77,26.21,,,,,11.78,132.25,61.148,0.85648,1.094,1.7504,0.01815,0.0363
2018-12-03 00:00:00+00:00,1543795201,13.313,31364.52,25.8,26.25,,,,,11.98,134.38,62.967,0.88197,1.097,1.7552,-0.0397,-0.0794
2018-12-03 00:20:00+00:00,1543796401,13.258,31458.25,25.93,26.36,,,,,12.27,137.58,63.854,0.89438,1.097,1.7552,0.0314,0.0628
2018-12-03 00:40:00+00:00,1543797602,13.226,31397.46,25.89,26.33,,,,,12.74,142.81,64.742,0.90683,1.098,1.7568,0.00745,0.0149
2018-12-03 01:00:00+00:00,1543798801,13.403,31542.39,25.9,26.34,,,,,11.91,134.02,65.673,0.91988,1.098,1.7568,0.0083,0.0166
2018-12-03 01:20:00+00:00,1543800001,13.358,31604.82,25.99,26.42,,,,,11.13,125.13,63.012,0.88258,1.1,1.76,0.01,0.02
2018-12-03 01:40:00+00:00,1543801202,12.719,31030.97,25.9,26.35,,,,,11.01,122.06,62.231,0.87166,1.1015,1.7624,0.01995,0.0399
2018-12-03 02:00:00+00:00,1543802401,12.623,30888.92,25.84,26.29,,,,,11.43,126.41,63.018,0.88268,1.107,1.7712,0.0267,0.0534
2018-12-03 02:20:00+00:00,1543803602,12.574,30855.29,25.84,26.3,,,,,11.69,129.22,63.739,0.89277,1.108,1.7728,0.0151,0.0302
2018-12-03 02:40:00+00:00,1543804801,12.483,30777.83,25.83,26.29,,,,,11.33,124.91,63.394,0.88793,1.1085,1.7736,0.04435,0.0887
2018-12-03 03:00:00+00:00,1543806001,12.42,30753.05,25.85,26.31,,,,,10.84,119.4,62.76,0.87908,1.11,1.776,0.0637,0.1274
2018-12-03 03:20:00+00:00,1543807202,12.456,30833.95,25.9,26.36,,,,,10.89,120.04,62.03,0.86883,1.11,1.776,0.0737,0.1474
2018-12-03 03:40:00+00:00,1543808401,12.445,30851.93,25.93,26.38,,,,,10.69,117.89,62.228,0.87161,1.111,1.7776,0.05285,0.1057
2018-12-03 04:00:00+00:00,1543809601,12.417,30838.99,25.93,26.39,,,,,10.17,112.04,62.445,0.87463,1.112,1.7792,0.0369,0.0738
2018-12-03 04:20:00+00:00,1543810802,12.385,30861.21,25.98,26.43,,,,,10.52,115.86,62.212,0.87138,1.112,1.7792,0.0621,0.1242
2018-12-03 04:40:00+00:00,1543812001,12.508,31147.16,26.16,26.59,,,,,10.35,114.45,64.739,0.90678,1.1125,1.78,0.06465,0.1293
2018-12-03 05:00:00+00:00,1543813201,12.825,31953.65,26.68,27.06,,,,,9.24,103.22,66.146,0.92648,1.113,1.7808,0.0218,0.0436
2018-12-03 05:20:00+00:00,1543814402,12.006,30914.62,26.29,26.73,,,,,9.8,107.31,65.114,0.91201,1.114,1.7824,0.0538,0.1076
2018-12-03 05:40:00+00:00,1543815601,11.67,30388.87,26.03,26.5,,,,,11.04,119.82,66.485,0.9312,1.1205,1.7928,0.05665,0.1133
2018-12-03 06:00:00+00:00,1543816801,11.475,30635.21,26.4,26.85,,,,,9.23,99.93,56.362,0.78943,1.123,1.7968,0.0271,0.0542
2018-12-03 06:20:00+00:00,1543818002,11.286,29643.21,25.59,26.11,,,,,9.96,106.88,54.666,0.76568,1.123,1.7968,0.0848,0.1696
2018-12-03 06:40:00+00:00,1543819202,10.615,29402.9,25.83,26.35,,,,,10.34,109.49,65.862,0.92253,1.122,1.7952,0.03645,0.0729
2018-12-03 07:00:00+00:00,1543820401,9.671,24382.89,21.58,22.41,,,,,10.49,105.91,69.334,0.97116,1.122,1.7952,0.0322,0.0644
2018-12-03 07:20:00+00:00,1543821601,,,,,,,,,,,68.395,0.95799,1.124,1.7984,0.0204,0.0408
2018-12-03 07:40:00+00:00,1543822802,10.481,27343.22,23.93,24.59,,,,,10.68,111.41,63.276,0.88627,1.124,1.7984,0.0331,0.0662
2018-12-03 08:00:00+00:00,1543824001,10.564,27717.56,24.24,24.88,,,,,10.35,108.39,66.507,0.9315,1.124,1.7984,0.0458,0.0916
2018-12-03 08:20:00+00:00,1543825202,10.709,27652.54,24.08,24.72,,,,,10.26,107.66,56.424,0.79032,1.123,1.7968,0.0288,0.0576
2018-12-03 08:40:00+00:00,1543826401,10.777,27819.54,24.19,24.83,,,,,10.5,110.42,53.6,0.75075,1.1235,1.7976,0.0102,0.0204
2018-12-03 09:00:00+00:00,1543827601,10.833,27900.43,24.23,24.86,,,,,10.77,113.47,54.336,0.76107,1.118,1.7888,-0.2228,-0.4456
2018-12-03 09:20:00+00:00,1543828802,10.218,27204.08,23.97,24.64,,,,,10.93,113.39,55.676,0.77986,1.109,1.7744,-0.3917,-0.7834
2018-12-03 09:40:00+00:00,1543830001,9.407,25464.9,22.8,23.57,,,,,10.62,107.42,58.077,0.81346,1.102,1.7632,-0.43565,-0.8713
2018-12-03 10:00:00+00:00,1543831202,10.622,28247.18,24.71,25.31,,,,,9.06,95.3,58.848,0.82424,1.099,1.7584,-0.3349,-0.6698
2018-12-03 10:20:00+00:00,1543832401,10.954,28620.47,24.84,25.42,,,,,9.04,95.88,57.302,0.80263,1.102,1.7632,-0.2062,-0.4124
2018-12-03 10:40:00+00:00,1543833601,8.831,23964.94,21.67,22.54,,,,,10.49,103.99,79.869,1.11868,1.1065,1.7704,-0.02505,-0.0501
2018-12-03 11:00:00+00:00,1543834801,9.781,26584.67,23.65,24.36,,,,,10.11,103.7,147.524,2.06633,1.106,1.7696,0.0334,0.0668
2018-12-03 11:20:00+00:00,1543836001,11.005,29160.04,25.32,25.87,,,,,7.75,82.56,130.229,1.82407,1.107,1.7712,0.0267,0.0534
2018-12-03 11:40:00+00:00,1543837201,8.94,23346.86,21,21.89,,,,,10.54,104.29,140.626,1.96969,1.1085,1.7736,0.0101,0.0202
2018-12-03 12:00:00+00:00,1543838402,9.823,27964.81,24.98,25.6,,,,,9.44,97.7,122.691,1.7185,1.111,1.7776,-0.0101,-0.0202
2018-12-03 12:20:00+00:00,1543839601,10.421,28871.47,25.45,26.01,,,,,7.9,83.11,134.817,1.88835,1.111,1.7776,0.0302,0.0604
2018-12-03 12:40:00+00:00,1543840802,10.801,28664.51,24.99,25.57,,,,,8.19,86.59,66.555,0.93221,1.112,1.7792,0.04195,0.0839
2018-12-03 13:00:00+00:00,1543842001,10.74,28951.85,25.31,25.86,,,,,7.77,82.2,66.475,0.93108,1.114,1.7824,0.0454,0.0908
2018-12-03 13:20:00+00:00,1543843201,10.609,28825.13,25.27,25.84,,,,,7.71,81.31,67.585,0.94663,1.116,1.7856,0.0775,0.155
2018-12-03 13:40:00+00:00,1543844402,10.486,28533.18,25.08,25.66,,,,,7.51,78.98,67.204,0.94129,1.117,1.7872,0.07675,0.1535
2018-12-03 14:00:00+00:00,1543845601,10.423,28446.92,25.03,25.62,,,,,7.36,77.27,63.325,0.88696,1.117,1.7872,0.0523,0.1046
2018-12-03 14:20:00+00:00,1543846802,10.316,28422.43,25.08,25.68,,,,,7.1,74.35,62.452,0.87475,1.12,1.792,0.0778,0.1556
2018-12-03 14:40:00+00:00,1543848001,10.31,28402.5,25.07,25.66,,,,,8.56,89.63,63.702,0.89225,1.059,1.6944,0.04185,0.0837
2018-12-03 15:00:00+00:00,1543849201,10.512,28565.44,25.09,25.67,,,,,8.56,90.04,62.652,0.87754,1.004,1.6064,0.0996,0.1992
2018-12-03 15:20:00+00:00,1543850402,10.168,28253.26,25.02,25.62,,,,,8.36,87.23,63.4,0.88803,1.002,1.6032,0.1009,0.2018
2018-12-03 15:40:00+00:00,1543851601,,,,,,,,,,,64.868,0.90857,1.067,1.7072,0.10015,0.2003
2018-12-03 16:00:00+00:00,1543852801,10.886,29384.71,25.62,26.15,,,,,7.38,78.48,63.89,0.89488,1.124,1.7984,0.0951,0.1902
2018-12-03 16:20:00+00:00,1543854002,11.097,29957.04,26.02,26.51,,,,,6.24,66.85,120.794,1.69191,1.124,1.7984,0.1154,0.2308
2018-12-03 16:40:00+00:00,1543855201,11.269,30343.4,26.27,26.73,,,,,7.75,83.5,112.221,1.57185,0.989,1.5824,0.1024,0.2048